Météo par heure à Al-Jadida

Ce jour, 15 Mai, Samedi

Heure Température Précipitation Vent Pression Humidité
00:00 +18°C° 0 mm 8 m/s 760 mmHg 80%
01:00 +18°C° 0 mm 8 m/s 760 mmHg 82%
02:00 +18°C° 0 mm 8 m/s 759 mmHg 84%
03:00 +18°C° 0 mm 7 m/s 760 mmHg 86%
04:00 +18°C° 0 mm 7 m/s 760 mmHg 88%
05:00 +17°C° 0 mm 6 m/s 760 mmHg 91%
06:00 +20°C° 0 mm 7 m/s 760 mmHg 81%
07:00 +22°C° 0 mm 7 m/s 760 mmHg 70%
08:00 +24°C° 0 mm 8 m/s 760 mmHg 60%
09:00 +24°C° 0 mm 8 m/s 760 mmHg 59%
10:00 +26°C° 0 mm 9 m/s 760 mmHg 58%
11:00 +27°C° 0 mm 9 m/s 760 mmHg 56%
12:00 +26°C° 0 mm 9 m/s 760 mmHg 56%
13:00 +26°C° 0 mm 10 m/s 760 mmHg 57%
14:00 +26°C° 0 mm 10 m/s 759 mmHg 57%
15:00 +24°C° 0 mm 10 m/s 759 mmHg 58%
16:00 +24°C° 0 mm 9 m/s 759 mmHg 59%
17:00 +23°C° 0 mm 8 m/s 759 mmHg 60%
18:00 +22°C° 0 mm 9 m/s 759 mmHg 65%
19:00 +21°C° 0 mm 9 m/s 760 mmHg 71%
20:00 +19°C° 0 mm 9 m/s 760 mmHg 76%
21:00 +20°C° 0 mm 8 m/s 760 mmHg 78%
22:00 +20°C° 0 mm 7 m/s 760 mmHg 79%
23:00 +20°C° 0 mm 6 m/s 760 mmHg 81%

Demain, 16 Mai, Dimanche

Heure Température Précipitation Vent Pression Humidité
00:00 +20°C° 0 mm 6 m/s 760 mmHg 83%
01:00 +20°C° 0 mm 6 m/s 759 mmHg 85%
02:00 +19°C° 0 mm 6 m/s 759 mmHg 88%
03:00 +20°C° 0 mm 7 m/s 759 mmHg 88%
04:00 +20°C° 0 mm 8 m/s 759 mmHg 88%
05:00 +20°C° 0 mm 8 m/s 758 mmHg 88%
06:00 +21°C° 0 mm 9 m/s 759 mmHg 80%
07:00 +23°C° 0 mm 9 m/s 759 mmHg 72%
08:00 +24°C° 0 mm 9 m/s 759 mmHg 64%
09:00 +26°C° 0 mm 9 m/s 759 mmHg 63%
10:00 +26°C° 0 mm 9 m/s 759 mmHg 62%
11:00 +26°C° 0 mm 9 m/s 760 mmHg 60%
12:00 +26°C° 0 mm 9 m/s 759 mmHg 61%
13:00 +26°C° 0 mm 9 m/s 759 mmHg 61%
14:00 +26°C° 0 mm 10 m/s 759 mmHg 62%
15:00 +24°C° 0 mm 9 m/s 759 mmHg 63%
16:00 +23°C° 0 mm 9 m/s 759 mmHg 65%
17:00 +23°C° 0 mm 8 m/s 759 mmHg 67%
18:00 +22°C° 0 mm 6 m/s 760 mmHg 74%
19:00 +21°C° 0 mm 5 m/s 761 mmHg 81%
20:00 +20°C° 0 mm 3 m/s 762 mmHg 88%
21:00 +20°C° 0 mm 3 m/s 762 mmHg 89%
22:00 +20°C° 0 mm 4 m/s 762 mmHg 91%
23:00 +19°C° 0 mm 4 m/s 762 mmHg 92%

Après-demain, 17 Mai, Lundi

Heure Température Précipitation Vent Pression Humidité
00:00 +19°C° 0 mm 4 m/s 762 mmHg 92%
01:00 +19°C° 0 mm 5 m/s 762 mmHg 92%
02:00 +19°C° 0 mm 5 m/s 762 mmHg 92%
03:00 +19°C° 0 mm 5 m/s 762 mmHg 92%
04:00 +19°C° 0 mm 5 m/s 762 mmHg 92%
05:00 +19°C° 0 mm 4 m/s 763 mmHg 93%
06:00 +20°C° 0 mm 5 m/s 763 mmHg 85%
07:00 +21°C° 0 mm 6 m/s 763 mmHg 78%
08:00 +23°C° 0 mm 6 m/s 764 mmHg 71%
09:00 +23°C° 0 mm 7 m/s 763 mmHg 66%
10:00 +24°C° 0 mm 7 m/s 763 mmHg 62%
11:00 +26°C° 0 mm 7 m/s 763 mmHg 57%
12:00 +26°C° 0 mm 7 m/s 763 mmHg 59%
13:00 +26°C° 0 mm 8 m/s 763 mmHg 60%
14:00 +24°C° 0 mm 8 m/s 763 mmHg 62%
15:00 +24°C° 0 mm 8 m/s 763 mmHg 66%
16:00 +23°C° 0 mm 8 m/s 763 mmHg 69%
17:00 +22°C° 0 mm 8 m/s 763 mmHg 72%
18:00 +21°C° 0 mm 7 m/s 763 mmHg 79%
19:00 +20°C° 0 mm 7 m/s 763 mmHg 85%
20:00 +18°C° 0 mm 7 m/s 764 mmHg 91%
21:00 +18°C° 0 mm 7 m/s 764 mmHg 91%
22:00 +18°C° 0 mm 7 m/s 763 mmHg 91%
23:00 +18°C° 0 mm 7 m/s 763 mmHg 92%

18 Mai, Mardi

Heure Température Précipitation Vent Pression Humidité
00:00 +18°C° 0 mm 7 m/s 763 mmHg 91%
01:00 +18°C° 0 mm 7 m/s 763 mmHg 91%
02:00 +18°C° 0 mm 7 m/s 762 mmHg 91%
03:00 +19°C° 0 mm 6 m/s 762 mmHg 91%
04:00 +19°C° 0 mm 6 m/s 763 mmHg 91%
05:00 +17°C° 0 mm 5 m/s 763 mmHg 91%
06:00 +20°C° 0 mm 6 m/s 763 mmHg 81%
07:00 +22°C° 0 mm 8 m/s 763 mmHg 71%
08:00 +24°C° 0 mm 9 m/s 763 mmHg 61%
09:00 +24°C° 0 mm 9 m/s 763 mmHg 57%
10:00 +26°C° 0 mm 9 m/s 763 mmHg 53%
11:00 +27°C° 0 mm 9 m/s 763 mmHg 49%
12:00 +26°C° 0 mm 9 m/s 762 mmHg 50%
13:00 +26°C° 0 mm 9 m/s 762 mmHg 51%
14:00 +26°C° 0 mm 9 m/s 761 mmHg 51%
15:00 +24°C° 0 mm 9 m/s 761 mmHg 55%
16:00 +23°C° 0 mm 9 m/s 761 mmHg 60%
17:00 +22°C° 0 mm 8 m/s 761 mmHg 64%
18:00 +22°C° 0 mm 8 m/s 762 mmHg 72%
19:00 +21°C° 0 mm 7 m/s 762 mmHg 80%
20:00 +20°C° 0 mm 7 m/s 762 mmHg 88%
21:00 +20°C° 0 mm 7 m/s 762 mmHg 87%
22:00 +20°C° 0 mm 7 m/s 762 mmHg 86%
23:00 +20°C° 0 mm 7 m/s 761 mmHg 85%

19 Mai, Mercredi

Heure Température Précipitation Vent Pression Humidité
00:00 +20°C° 0 mm 7 m/s 761 mmHg 87%
01:00 +20°C° 0 mm 7 m/s 761 mmHg 89%
02:00 +20°C° 0 mm 6 m/s 760 mmHg 91%
03:00 +20°C° 0 mm 6 m/s 760 mmHg 92%
04:00 +19°C° 0 mm 6 m/s 760 mmHg 93%
05:00 +19°C° 0 mm 5 m/s 760 mmHg 95%
06:00 +21°C° 0 mm 5 m/s 760 mmHg 87%
07:00 +22°C° 0 mm 6 m/s 760 mmHg 80%
08:00 +23°C° 0 mm 6 m/s 760 mmHg 72%
09:00 +24°C° 0 mm 6 m/s 760 mmHg 69%
10:00 +26°C° 0 mm 7 m/s 760 mmHg 66%
11:00 +27°C° 0 mm 7 m/s 760 mmHg 63%
12:00 +27°C° 0 mm 7 m/s 760 mmHg 63%
13:00 +27°C° 0 mm 7 m/s 760 mmHg 63%
14:00 +26°C° 0 mm 8 m/s 760 mmHg 63%
15:00 +26°C° 0 mm 7 m/s 760 mmHg 66%
16:00 +24°C° 0 mm 7 m/s 760 mmHg 69%
17:00 +23°C° 0 mm 6 m/s 760 mmHg 72%
18:00 +23°C° 0 mm 6 m/s 760 mmHg 77%
19:00 +22°C° 0 mm 6 m/s 761 mmHg 82%
20:00 +21°C° 0 mm 6 m/s 761 mmHg 88%
21:00 +21°C° 0 mm 7 m/s 761 mmHg 89%
22:00 +20°C° 0 mm 7 m/s 761 mmHg 90%
23:00 +20°C° 0 mm 8 m/s 761 mmHg 91%

20 Mai, Jeudi

Heure Température Précipitation Vent Pression Humidité
00:00 +20°C° 0 mm 7 m/s 760 mmHg 92%
01:00 +20°C° 0 mm 7 m/s 760 mmHg 93%
02:00 +20°C° 0 mm 7 m/s 759 mmHg 93%
03:00 +20°C° 0 mm 6 m/s 759 mmHg 93%
04:00 +20°C° 0 mm 5 m/s 760 mmHg 94%
05:00 +20°C° 0 mm 5 m/s 760 mmHg 94%
06:00 +21°C° 0 mm 5 m/s 760 mmHg 86%
07:00 +22°C° 0 mm 6 m/s 760 mmHg 78%
08:00 +24°C° 0 mm 7 m/s 760 mmHg 70%
09:00 +26°C° 0 mm 7 m/s 760 mmHg 67%
10:00 +27°C° 0 mm 8 m/s 760 mmHg 63%
11:00 +28°C° 0 mm 8 m/s 760 mmHg 59%
12:00 +28°C° 0 mm 9 m/s 759 mmHg 60%
13:00 +28°C° 0 mm 9 m/s 759 mmHg 61%
14:00 +27°C° 0 mm 10 m/s 758 mmHg 62%
15:00 +26°C° 0 mm 10 m/s 758 mmHg 66%
16:00 +24°C° 0 mm 11 m/s 758 mmHg 69%
17:00 +23°C° 0 mm 11 m/s 758 mmHg 72%
18:00 +23°C° 0 mm 10 m/s 759 mmHg 75%
19:00 +22°C° 0 mm 9 m/s 759 mmHg 78%
20:00 +21°C° 0 mm 8 m/s 760 mmHg 80%
21:00 +21°C° 0 mm 7 m/s 760 mmHg 81%
22:00 +21°C° 0 mm 7 m/s 760 mmHg 81%
23:00 +21°C° 0 mm 6 m/s 760 mmHg 81%
Voir plus

Nous avons besoin de votre consentement

Meteoprog et ses fournisseurs de services peuvent stocker et accéder à des données personnelles telles que des cookies, des identifiants d'appareils ou d'autres technologies similaires sur votre appareil et traiter ces données pour personnaliser le contenu et les publicités, ainsi que pour fournir des fonctionnalités de médias sociaux et analyser le trafic.

  • Stocker et/ou accéder à des informations sur votre appareil

    Des cookies, des identifiants d'appareils ou d'autres informations peuvent être stockés ou accessibles sur votre appareil aux fins indiquées ci-dessus.

  • Annonces et contenus personnalisés, mesure des annonces et des contenus, connaissance de l'audience et développement de produits

    Les annonces et le contenu peuvent être personnalisés en fonction d'un profil. D'autres données peuvent être ajoutées pour mieux personnaliser les annonces et le contenu. Les performances des publicités et du contenu peuvent être mesurées. Il est possible d'obtenir des informations sur le public qui a vu les publicités et le contenu. Ces données peuvent être utilisées pour développer ou améliorer l'expérience de l'utilisateur, les systèmes et les logiciels.

En cliquant sur "J'accepte", vous autorisez l'utilisation de cookies, des identifiants d'appareils, des balises web ou d'autres technologies similaires. Vos paramètres peuvent être modifiés dans le navigateur de votre appareil.

Dans certains cas, des intérêts légitimes peuvent être invoqués plutôt qu'un consentement. Vous pouvez en savoir plus à ce sujet dans notre Politique de confidentialité et de cookies.